Flag for Cuba Weather past 2 weeks in Holguín, Cuba

Now
72 °F

Passing clouds.


Feels Like: 74 °F
Forecast: 69 / 84 °F
Wind: 7 mph from East

Location: Holguin Civ / Mil

Current Time: Mar 4, 2015 at 2:20:27 AM

Latest Report: Mar 4, 2015 at 1:50 AM


Visibility: N/A

Pressure: 30.04 "Hg

Humidity: 73%

Dew point: 63 °F

Location of HolguínLocation

Historic Weather in Holguín — Graph

°F

Holguín temperature yesterday

Maximum temperature yesterday: 86 °F (at 11:50 AM)
Minimum temperature yesterday: 66 °F (at 3:50 AM)
Average temperature yesterday: 77 °F

Past Weeks' High & Low Weather Summary

 TemperatureHumidityPressure
High93 °F (Feb 25, 2:57 PM)94% (Feb 17, 6:51 AM)30.18 "Hg (Feb 17, 6:51 AM)
Low61 °F (Feb 17, 6:51 AM)28% (Feb 25, 2:57 PM)29.89 "Hg (Feb 25, 2:57 PM)
Average76 °F68%30.05 "Hg
* Reported Feb 17 12:50 AM — Mar 4 12:50 AM, Holguín, Weather by CustomWeather, © 2015

Note: Actual official high and low records may vary slightly from our data, if they occured in-between our weather recording intervals... More about our weather records

Advertising

Holguín weather history for previous 24 hours

 ConditionsComfort  
Time TempWeatherWind HumidityBarometerVisibility
12:50 AM
Wed, Mar 4
72 °FPassing clouds.8 mph78%30.04 "HgN/A
11:50 PM
Tue, Mar 3
73 °FPassing clouds.10 mph78%30.07 "HgN/A
10:51 PM73 °FPassing clouds.8 mph78%30.07 "HgN/A
9:52 PM73 °FPassing clouds.10 mph78%30.07 "HgN/A
8:51 PM75 °FPassing clouds.13 mph74%30.07 "HgN/A
7:50 PM75 °FPassing clouds.13 mph69%30.07 "HgN/A
6:51 PM77 °FPassing clouds.18 mph65%30.04 "HgN/A
5:50 PM79 °FPassing clouds.20 mph58%30.04 "HgN/A
4:50 PM82 °FPassing clouds.22 mph48%30.01 "HgN/A
3:50 PM84 °FPassing clouds.24 mph43%30.01 "HgN/A
2:50 PM86 °FScattered clouds.22 mph43%30.01 "HgN/A
1:50 PM86 °FScattered clouds.16 mph38%30.04 "HgN/A
12:50 PM84 °FScattered clouds.18 mph37%30.07 "HgN/A
11:50 AM86 °FScattered clouds.18 mph38%30.09 "HgN/A
10:50 AM84 °FScattered clouds.22 mph40%30.09 "HgN/A
9:51 AM82 °FScattered clouds.21 mph48%30.12 "HgN/A
8:50 AM79 °FPassing clouds.16 mph61%30.12 "HgN/A
7:50 AM75 °FPassing clouds.8 mph74%30.09 "Hg6 mi
6:52 AM68 °FFog.7 mph88%30.09 "Hg5 mi
5:50 AM66 °FFog.2 mph88%30.07 "Hg5 mi
4:51 AM66 °FFog.3 mph88%30.04 "Hg5 mi
3:50 AM66 °FFog.2 mph94%30.04 "Hg5 mi
2:50 AM70 °FClear.3 mph88%30.04 "Hg10 mi
Weather by CustomWeather, © 2015

See weather overviewHow to use our weather pages